Dewpoint
72 71 70 70 71 70 68 66 58 59 59 54 54 55 54 59 61 61 61 62 61 62 61 59 59 59 59 58 58 62 63 57 59 52 53 64 69 69 70 71 71 72 72 72 73 75 74 76 76 76 76 76 77 77 77 77 77 77 77 76 76 76 76 76 76 76 76 75 75 75 75 75 75 75 75 75 74 74 75 74 75 75 74 74 74 74 74 74 74 73 73 74 74 74 74 74 74
72 71 70 71 69 67 61 64 58 57 57 53 53 56 57 62 60 60 60 61 60 61 59 58 60 62 61 60 61 60 60 63 64 63 66 68 68 69 71 71 71 71 71 72 74 74 73 75 76 76 76 76 77 77 77 77 77 76 76 76 76 76 76 76 76 76 76 75 75 75 75 75 75 75 75 75 75 75 74 74 74 74 74 75 75 74 74 74 74 74 73 74 74 74 74 74 74
72 70 69 70 69 68 64 62 55 56 53 51 52 56 61 59 59 62 62 62 61 61 59 61 62 61 60 60 58 61 58 64 64 65 66 68 67 69 70 71 72 72 72 73 74 74 73 75 77 76 76 76 76 76 77 76 76 76 76 76 76 76 76 76 76 76 76 75 75 75 75 75 75 75 75 75 74 74 74 74 74 74 75 75 75 74 74 74 73 73 74 74 74 73 74 73 73
71 70 67 67 61 66 62 61 58 55 52 52 53 56 59 59 61 63 62 62 62 60 60 60 61 63 62 58 61 62 62 62 63 65 65 67 67 70 70 71 73 72 72 73 74 73 73 76 77 77 76 76 76 76 77 76 76 76 76 76 76 76 76 76 76 76 75 75 75 74 75 75 75 75 75 75 75 75 75 74 74 74 74 75 75 74 74 73 73 73 74 74 73 73 73 73 73
70 69 69 67 65 61 61 60 57 56 51 53 52 55 59 60 61 61 62 62 62 60 59 60 60 63 64 62 63 60 61 64 65 66 66 68 70 71 71 72 72 72 72 73 73 72 73 77 77 76 76 76 76 76 76 76 76 76 77 76 76 76 76 76 76 76 75 75 74 75 75 75 74 75 75 75 75 75 74 74 74 74 74 74 74 74 74 73 73 73 73 74 74 73 74 74 73
70 69 71 71 64 68 62 57 55 54 54 56 54 57 59 60 61 62 61 63 62 61 60 60 60 61 62 63 64 59 64 61 65 66 66 68 70 71 72 72 71 72 72 73 73 72 73 77 77 76 76 76 76 76 76 76 76 76 76 76 76 75 75 76 76 75 75 74 75 75 75 75 75 75 75 75 75 75 75 74 74 74 75 75 74 74 74 73 73 73 74 74 74 74 74 73 74
66 68 68 68 68 67 59 56 53 53 55 57 57 57 60 61 62 62 62 61 62 61 61 60 62 61 60 62 63 64 66 65 66 66 67 69 71 71 72 71 72 72 73 73 73 73 73 76 76 76 76 76 76 76 76 76 76 76 76 75 75 75 75 75 75 75 76 75 76 75 75 75 75 75 75 75 75 74 75 75 74 74 75 75 75 74 74 74 73 73 74 74 74 74 74 74 74
69 68 66 63 61 62 56 54 54 55 55 58 59 59 62 61 61 62 61 60 60 60 60 61 61 63 62 63 61 66 67 65 66 68 69 70 71 71 71 71 71 71 72 73 73 73 76 77 76 76 76 76 76 76 76 76 76 76 75 75 75 75 75 75 74 75 75 75 75 75 75 75 75 75 75 75 75 75 75 75 75 75 75 74 74 74 74 73 73 73 73 74 74 74 73 73 74
67 69 69 63 58 58 55 54 54 57 57 59 60 65 64 63 62 62 61 60 60 61 60 60 61 59 61 62 62 66 67 68 69 70 70 70 70 71 71 71 70 71 72 73 72 73 74 76 76 76 76 76 76 76 76 76 76 75 75 75 75 75 75 75 76 76 75 74 75 75 75 75 75 75 75 75 75 75 75 75 75 75 75 75 74 74 74 73 73 73 72 75 74 74 74 74 73
67 69 63 60 59 54 53 53 54 55 57 59 59 63 64 64 63 61 59 60 60 60 60 61 61 62 62 62 63 65 67 68 69 69 70 70 70 71 71 71 71 71 72 72 72 72 73 76 76 76 76 76 76 76 76 76 75 75 75 75 75 75 75 76 76 76 76 75 75 76 75 75 75 75 75 75 75 75 75 75 75 75 74 74 74 74 74 74 74 73 73 74 75 74 73 74 74
65 67 67 60 56 54 52 50 53 54 56 62 62 64 65 63 62 60 60 60 60 60 61 61 61 61 61 62 65 68 68 68 68 68 70 70 71 71 70 71 71 71 72 71 72 72 73 74 76 76 76 76 76 76 76 75 75 75 75 75 75 75 75 76 76 75 76 76 75 75 75 75 75 75 75 75 75 75 75 75 75 74 75 74 73 74 74 74 74 73 73 75 75 74 74 75 74
64 62 62 56 54 53 53 53 53 54 58 60 60 65 64 62 61 61 60 59 60 60 60 61 61 62 61 62 64 67 68 67 67 69 70 70 70 70 71 71 71 72 71 71 71 72 72 74 75 75 76 76 76 76 75 75 75 75 75 75 75 75 75 75 76 76 75 75 75 75 75 75 75 75 75 76 76 76 75 75 75 75 75 74 74 73 74 74 74 73 73 74 74 74 75 75 74
65 63 60 57 54 55 54 55 53 55 56 57 59 64 63 61 61 61 60 60 60 59 60 63 62 62 60 61 66 67 66 67 68 69 70 69 70 70 71 70 71 72 72 72 71 71 72 73 73 74 75 76 76 75 75 75 75 75 76 75 75 75 75 75 75 75 75 75 75 75 76 75 75 75 76 76 76 76 75 75 75 75 75 75 75 74 74 74 74 74 73 73 74 74 74 73 74
63 62 60 56 57 55 55 54 54 53 51 57 60 63 62 61 62 62 61 59 60 60 61 63 62 63 62 63 65 64 65 67 69 69 70 70 70 70 70 71 71 71 72 72 71 72 72 72 72 74 75 76 75 75 75 75 75 75 75 75 75 75 76 75 74 75 75 75 74 75 75 75 74 75 76 76 75 74 75 76 75 75 75 74 74 74 74 74 74 74 73 73 73 74 74 74 74
64 64 60 58 56 55 55 53 51 51 51 58 62 62 61 63 63 61 61 60 60 62 62 63 62 59 60 61 62 63 66 68 69 69 69 70 70 70 71 71 72 72 71 71 71 71 71 72 72 74 75 75 75 75 75 75 75 75 75 75 75 76 76 74 74 74 74 75 75 75 74 75 75 75 75 75 73 74 76 76 75 74 74 74 74 74 74 74 74 74 74 73 73 73 73 74 74
66 63 60 56 54 54 53 53 53 52 51 60 62 62 62 64 64 60 61 61 61 62 62 60 62 59 61 61 62 64 67 68 69 69 69 70 71 71 71 71 71 71 71 71 71 72 71 72 73 73 74 74 74 73 75 75 75 75 75 75 76 76 75 75 73 74 74 75 75 74 74 75 75 75 75 74 74 76 75 75 75 75 75 74 74 74 74 74 74 74 73 73 73 72 73 73 73
66 64 59 56 53 54 52 52 52 48 55 61 64 63 60 61 66 66 68 64 62 61 61 61 60 62 61 62 63 65 67 68 69 68 69 70 70 69 70 72 72 71 71 71 71 72 71 72 73 73 74 74 73 74 74 75 75 75 75 75 75 75 75 75 75 75 75 75 75 75 75 75 76 76 75 74 74 75 76 75 74 74 75 75 75 75 75 74 73 73 74 74 73 73 73 73 73
64 59 56 55 55 54 53 52 52 52 56 60 62 61 63 61 62 63 65 63 62 61 61 62 63 63 63 64 65 66 67 67 67 67 68 68 69 70 70 71 72 70 70 70 71 72 72 73 74 74 74 74 74 75 74 75 75 75 75 76 76 75 75 75 76 76 75 76 76 76 76 75 75 76 75 75 75 75 75 75 74 74 74 74 75 75 75 74 73 73 73 73 73 74 74 74 75
59 58 56 54 56 56 55 54 53 53 51 60 61 61 59 60 61 63 61 60 59 60 61 62 63 64 65 65 66 66 67 66 67 67 66 67 68 68 68 70 70 69 69 70 71 71 72 73 73 73 73 75 75 75 74 75 75 76 76 76 76 75 75 76 76 76 76 76 76 75 76 75 75 76 76 75 76 75 75 75 74 75 74 73 73 74 73 73 73 73 73 74 75 74 75 75 75
60 57 54 55 57 57 58 56 56 55 55 59 61 61 59 61 61 63 60 59 59 59 60 61 61 62 63 65 65 66 66 66 67 66 66 66 67 67 68 68 68 69 69 69 69 71 72 72 73 73 74 75 74 74 74 75 75 75 75 75 75 75 76 76 76 76 76 76 75 75 75 76 75 76 76 76 75 76 76 76 75 75 75 74 75 74 74 76 75 75 76 75 74 74 73 72 72
59 58 55 56 57 57 56 56 55 55 56 59 60 61 59 61 61 60 60 59 59 59 61 60 61 62 63 64 64 65 65 65 66 66 66 66 66 66 67 68 67 69 70 70 70 70 72 73 73 73 74 75 74 74 74 74 75 74 75 75 75 74 75 75 75 76 76 76 76 75 74 75 74 75 76 75 74 75 76 76 75 75 75 76 75 76 76 76 75 75 76 76 75 75 73 72 72
59 57 58 57 58 54 57 57 54 56 59 62 61 59 58 61 61 60 60 57 58 59 61 61 63 63 63 63 64 64 64 64 65 66 65 65 66 66 66 68 69 69 70 70 69 70 71 72 73 73 73 74 74 74 73 74 75 73 74 74 75 75 74 74 75 75 75 76 75 73 74 75 74 75 75 75 75 75 74 74 75 75 76 77 76 76 73 75 75 74 74 74 73 73 72 73 72
54 57 58 58 58 58 59 57 57 56 56 58 58 59 60 60 59 60 59 57 59 61 62 63 63 64 64 63 64 63 63 64 65 65 65 65 65 66 66 67 68 68 70 69 70 70 71 72 73 73 72 74 75 75 74 74 74 74 74 74 74 74 74 74 74 74 75 76 75 75 72 72 73 73 74 75 74 74 74 73 74 75 75 74 75 73 73 75 75 74 73 74 73 72 71 73 74
55 53 55 56 58 58 58 57 55 51 53 54 56 60 59 59 59 60 59 59 59 61 62 64 64 64 64 63 63 62 63 64 64 65 65 65 65 65 66 66 68 69 70 69 69 69 71 70 73 73 73 73 74 74 74 74 74 73 73 75 74 74 74 73 73 74 75 75 75 75 74 73 72 73 74 74 74 74 73 74 75 73 72 71 74 75 74 74 74 74 75 74 73 73 70 72 71
54 53 54 53 52 53 52 51 50 50 49 51 57 58 57 59 58 60 59 59 60 62 63 64 65 64 64 64 63 62 63 64 64 65 65 66 66 66 67 67 68 68 68 69 69 69 70 70 72 72 72 73 73 73 73 73 73 74 73 73 73 74 74 73 74 75 75 75 75 76 75 73 73 73 74 74 75 74 75 74 72 71 72 72 74 74 75 75 74 73 74 73 74 75 72 71 71
51 52 52 51 50 50 49 48 48 48 48 52 56 55 56 59 60 58 59 59 61 63 63 64 64 64 64 63 63 62 63 63 63 64 65 65 66 66 67 67 68 68 68 69 69 70 70 69 71 71 72 72 73 72 73 73 73 73 73 73 73 74 74 74 75 73 74 73 74 75 74 74 73 73 74 75 74 74 73 74 73 72 72 74 74 75 75 74 74 73 73 74 73 74 72 75 72
45 48 50 50 49 49 49 49 49 48 47 51 52 53 55 59 58 55 60 60 62 62 63 64 64 64 64 63 63 63 62 63 63 64 65 66 66 66 66 66 67 68 69 69 69 70 70 70 69 72 72 73 73 71 73 73 73 73 73 73 73 74 74 75 73 73 73 73 74 76 76 76 74 74 75 75 75 74 74 75 74 75 74 74 76 75 76 75 74 73 73 73 74 74 74 73 72
45 45 45 46 47 47 47 45 45 45 45 48 50 50 54 58 57 54 59 61 62 62 63 63 63 64 64 64 64 64 63 64 64 65 64 65 65 66 66 66 67 67 68 69 70 71 69 69 69 70 71 72 73 71 73 72 73 73 73 73 73 74 75 73 73 73 73 73 75 75 76 75 75 74 75 76 75 76 76 75 75 75 75 75 75 74 75 76 75 75 74 75 75 75 74 73 73
42 43 42 43 42 41 42 42 43 45 44 48 50 50 52 56 55 56 59 61 61 62 62 63 63 63 64 64 63 63 63 64 64 65 64 65 65 66 66 67 67 68 68 69 70 70 69 69 70 70 71 73 73 71 71 72 72 72 72 72 73 73 73 74 73 72 73 74 75 75 76 76 76 75 75 76 76 76 76 76 74 75 75 75 75 75 76 76 76 75 75 75 74 74 72 72 72
41 41 40 40 40 39 40 41 42 44 44 48 51 44 47 52 55 56 60 61 61 61 62 62 63 63 63 64 64 64 64 64 64 64 65 66 66 66 66 67 68 68 69 70 70 70 70 69 70 69 70 71 72 71 72 72 72 72 73 72 73 73 73 73 73 74 73 73 74 76 75 76 75 75 75 76 76 76 76 76 75 74 75 76 76 77 75 74 73 73 73 73 74 73 71 71 69
34 34 38 36 36 36 40 41 42 42 46 48 48 43 44 49 52 56 60 61 61 61 61 62 62 63 63 63 63 64 64 64 63 65 65 65 66 67 67 68 68 69 69 69 69 70 70 70 69 69 70 71 71 72 72 72 72 72 72 73 73 73 73 73 70 71 72 71 72 74 76 76 77 76 77 76 75 75 74 74 74 74 75 76 75 76 75 75 75 74 73 73 73 71 71 71 69
34 27 23 30 33 33 35 42 43 42 47 48 47 43 43 46 50 55 59 60 60 60 61 62 62 62 63 63 63 63 63 64 64 64 65 66 66 66 67 67 68 69 69 70 70 71 70 70 71 69 71 71 72 72 73 73 73 73 73 73 74 75 73 72 71 69 69 69 71 73 76 77 77 77 77 77 76 75 74 74 74 76 76 76 76 76 76 75 75 75 74 73 72 71 72 69 69
34 27 29 28 31 30 31 36 39 43 47 48 46 43 46 46 49 55 59 60 60 60 61 61 62 62 62 63 63 63 63 64 64 65 66 67 66 67 67 67 68 69 70 70 71 71 71 70 72 68 69 71 72 72 73 74 74 74 74 73 72 74 71 71 71 70 70 69 69 71 76 77 77 77 78 77 76 76 74 75 75 75 76 75 76 75 76 76 76 73 76 76 75 73 70 67 67
30 32 28 33 30 27 29 38 39 42 43 45 47 43 43 47 49 55 58 59 60 60 61 61 62 62 63 63 62 63 63 63 64 65 65 66 66 67 67 68 68 69 69 70 71 70 70 71 71 69 69 70 72 73 73 73 73 74 73 73 74 72 70 69 69 71 71 69 72 73 76 77 77 78 78 77 77 76 75 75 74 76 76 76 76 76 76 76 76 74 75 76 75 74 69 67 66
25 32 30 31 34 32 28 31 36 39 42 42 46 46 44 47 51 55 57 59 59 60 61 61 61 62 63 63 62 62 63 63 64 65 65 66 66 67 67 67 68 68 69 70 71 72 72 71 71 71 70 70 71 73 74 74 73 73 72 72 72 72 72 70 70 70 70 71 69 74 77 76 77 77 77 77 77 75 75 75 75 76 76 76 76 75 75 75 75 75 74 76 76 75 72 70 70
25 30 31 31 29 29 32 35 36 39 39 41 43 45 45 46 49 54 56 58 59 59 61 61 62 62 63 63 62 62 63 63 64 65 65 66 66 67 67 67 67 68 69 70 71 71 72 72 71 71 71 70 71 72 73 72 72 70 70 70 70 71 71 71 71 69 70 71 71 74 76 76 76 77 77 77 77 76 75 75 76 76 76 76 75 74 75 74 75 75 75 74 75 73 72 71 70
31 29 32 32 30 31 34 34 35 37 38 40 41 43 43 44 48 52 56 58 59 59 60 61 62 62 62 62 62 63 63 63 64 65 66 66 66 67 67 67 67 68 69 69 70 71 71 71 71 71 71 71 71 71 71 70 70 70 70 68 67 68 71 71 70 70 69 69 72 74 76 75 76 77 77 77 77 77 77 76 76 76 76 76 76 75 75 75 76 76 76 76 73 73 71 69 69
32 31 31 32 33 29 31 34 33 34 35 35 39 40 42 43 46 50 55 57 57 58 60 61 61 62 62 63 62 63 63 64 64 65 65 66 66 66 67 67 68 67 68 69 70 70 71 71 71 71 71 71 70 70 71 71 71 70 69 68 66 66 69 69 69 71 69 69 74 75 75 75 76 76 77 77 77 77 77 76 76 76 76 76 76 76 76 76 76 75 75 74 75 72 71 67 67
28 31 32 31 33 32 32 32 32 32 35 34 35 38 39 42 44 50 54 56 57 58 59 60 61 62 62 62 63 63 63 64 64 64 65 65 66 66 67 67 67 67 68 68 69 69 71 71 71 72 71 70 70 71 71 71 72 72 69 69 67 66 67 68 66 68 70 69 72 75 75 76 76 76 77 77 77 76 76 76 76 77 77 76 76 76 76 76 76 75 75 73 73 73 72 70 69
24 28 31 31 31 32 29 33 31 32 33 34 35 33 34 37 42 49 54 55 57 58 58 60 61 62 62 62 62 63 63 64 63 64 64 65 66 66 67 67 67 67 68 68 68 69 70 71 72 72 71 71 71 71 72 72 72 73 72 71 70 68 68 69 70 71 71 71 71 73 75 76 76 75 76 76 76 76 77 76 76 76 77 77 76 76 76 75 76 76 74 74 73 71 69 69 67
23 24 29 31 32 32 30 29 28 29 29 30 31 33 33 35 35 44 51 54 55 57 58 59 61 62 62 62 63 63 63 64 64 64 64 64 65 66 67 67 67 67 67 68 68 68 68 70 71 72 72 71 71 72 72 72 72 72 72 72 71 70 70 69 69 68 69 71 70 73 74 75 76 75 75 76 75 76 77 76 76 76 76 77 76 75 75 73 75 74 75 75 74 71 68 68 70
20 22 25 30 32 32 31 31 30 29 30 29 30 34 36 37 34 34 45 53 55 57 58 58 60 61 62 62 62 63 63 64 64 64 64 64 65 66 67 67 67 67 67 68 68 68 69 70 71 72 72 71 71 71 72 72 72 71 71 70 69 69 68 69 68 67 67 69 67 69 74 74 74 75 76 76 76 76 77 76 77 76 76 76 76 75 75 75 75 75 75 74 73 74 72 69 68
19 21 24 27 31 32 32 33 32 31 31 31 30 32 33 36 35 35 43 51 54 56 57 57 58 60 61 61 61 62 62 63 64 64 64 64 65 66 66 67 67 67 67 68 68 68 69 70 71 72 72 71 71 72 72 72 71 71 71 69 69 68 68 69 70 68 68 70 70 73 74 74 75 74 75 76 76 76 77 77 77 76 75 76 77 76 76 74 73 74 76 75 74 75 74 70 69
18 24 29 27 30 32 32 32 32 33 30 30 29 29 31 33 32 38 42 48 52 54 56 57 56 59 59 60 60 62 62 62 63 64 64 64 65 65 66 67 67 66 67 67 67 68 69 71 71 71 72 71 71 72 72 72 71 72 71 71 70 69 67 69 72 72 72 73 72 72 73 74 76 75 75 76 76 76 77 77 77 76 76 75 76 75 75 74 74 75 76 76 76 76 74 72 69
19 28 31 30 30 31 32 32 33 32 31 32 31 30 30 31 34 41 41 44 49 53 55 56 57 58 58 59 59 60 61 62 63 63 63 64 65 65 66 66 66 66 66 67 67 68 69 71 71 72 71 72 71 72 72 72 72 72 72 71 71 71 70 70 72 72 72 73 72 73 75 74 76 76 76 76 76 76 76 77 77 77 76 76 76 75 74 74 75 75 76 76 76 76 75 74 73
21 31 30 30 31 31 31 31 32 34 34 33 34 29 29 30 32 31 43 40 43 49 54 55 57 58 58 58 59 59 61 62 62 63 63 64 65 65 65 66 66 66 67 68 68 68 69 70 71 71 71 71 71 72 72 72 72 72 72 71 71 71 71 71 71 72 73 74 73 74 74 75 74 75 76 76 77 76 76 77 76 76 76 74 75 74 75 75 76 76 76 75 76 76 76 75 73
28 29 30 30 30 30 32 32 34 34 33 34 33 30 28 28 31 31 36 39 41 45 51 55 57 57 58 59 58 58 59 61 61 62 63 64 64 65 65 65 66 67 67 67 67 68 68 69 70 71 71 71 72 71 72 72 72 72 72 72 72 71 72 72 72 72 73 73 73 73 73 74 74 74 74 76 76 76 76 77 75 75 76 76 76 76 75 74 74 75 75 76 76 76 75 75 74
27 24 24 30 32 33 34 34 35 31 28 33 33 31 29 28 30 31 34 41 40 43 46 51 54 57 58 59 58 58 59 60 61 61 61 63 64 65 65 65 66 66 67 67 67 68 68 69 70 71 71 72 72 71 71 71 71 72 72 72 72 72 72 71 71 72 72 72 72 73 73 74 74 74 75 74 75 74 76 76 76 76 76 76 76 76 75 75 74 74 75 76 76 76 76 76 74
25 23 27 25 28 32 29 32 29 29 27 29 29 30 29 29 32 32 33 34 35 40 41 47 50 53 57 58 58 59 59 59 60 61 61 62 63 63 64 65 66 67 67 67 67 66 68 69 70 70 71 72 72 71 71 71 72 72 72 72 72 72 72 72 72 72 73 72 73 73 74 73 74 74 74 73 74 75 76 76 76 76 76 76 77 76 77 77 76 75 76 75 76 76 75 76 74
24 23 27 25 27 27 27 28 29 28 29 27 26 28 26 29 30 32 30 32 34 36 43 45 49 52 55 57 59 58 59 59 60 60 61 61 63 63 64 65 66 66 66 66 67 67 68 68 70 70 71 72 72 72 71 72 72 72 72 72 72 73 72 72 72 71 72 72 73 73 72 71 73 73 73 74 74 75 75 76 77 77 77 77 77 77 77 77 77 76 76 76 75 76 76 76 76
26 24 24 28 28 25 26 26 25 25 25 26 26 25 27 24 28 29 30 30 31 32 34 42 48 51 54 55 57 58 59 59 60 61 60 61 62 63 63 64 65 66 65 66 66 68 68 69 70 70 71 72 72 72 72 71 71 72 73 72 73 73 72 72 72 72 72 73 72 72 73 72 72 73 74 75 76 76 76 76 77 76 77 77 77 77 76 77 77 77 76 76 76 76 76 76 75
28 28 27 28 27 31 26 27 26 26 25 23 27 24 30 27 36 33 34 29 30 32 33 37 44 48 51 53 54 56 57 58 59 60 60 61 62 63 63 64 65 65 66 66 66 68 69 69 71 71 71 71 71 72 72 72 72 72 73 73 73 73 73 72 73 73 74 73 73 73 74 74 73 74 75 76 75 75 76 76 76 76 77 76 77 77 77 76 77 75 75 75 75 75 76 75 75
27 29 28 27 30 30 29 30 32 29 27 25 29 26 26 28 27 27 27 29 30 30 31 33 35 42 50 51 52 55 56 58 59 59 60 62 62 63 62 63 63 64 65 65 67 69 69 69 70 70 71 71 71 72 72 72 72 72 73 73 72 73 72 72 71 72 70 72 73 73 73 73 74 75 74 74 75 76 76 76 76 75 76 77 77 77 77 77 77 76 74 75 75 74 76 76 75
29 27 27 31 32 31 30 25 29 26 23 28 25 22 23 23 22 25 27 27 29 30 31 31 35 39 47 47 51 54 55 57 59 60 61 62 62 62 61 62 63 64 65 66 68 68 69 69 69 70 70 71 71 71 71 72 72 72 73 72 73 73 71 71 71 72 72 73 73 73 73 73 73 73 73 73 74 75 76 76 76 76 76 76 76 76 77 77 77 76 75 75 75 76 75 76 76
27 26 28 29 30 29 32 31 26 25 23 25 24 23 22 22 24 22 25 26 26 32 34 33 33 37 40 43 49 54 55 56 58 59 61 61 61 61 62 61 61 63 65 66 67 67 68 68 68 68 69 69 70 69 70 72 72 71 71 72 72 72 72 72 72 73 73 73 71 72 72 72 72 73 74 75 75 74 75 75 76 75 76 76 76 76 77 77 77 76 75 74 75 75 75 75 76
29 29 30 29 27 30 31 31 30 31 26 27 25 23 22 24 23 21 23 26 27 27 33 33 33 36 40 44 45 51 55 56 57 58 59 60 60 60 60 61 60 62 64 64 65 65 66 66 68 68 68 70 70 70 71 71 71 71 71 72 73 73 73 73 73 73 72 72 72 72 72 71 72 72 72 74 74 73 74 73 73 74 73 74 75 75 76 77 77 76 75 74 75 75 75 75 75
28 28 27 27 27 30 30 31 28 28 27 26 26 22 24 26 26 23 24 26 27 28 35 39 38 37 39 44 47 50 54 56 57 57 58 59 60 59 60 61 60 61 63 64 64 64 65 65 66 67 68 68 68 69 69 71 71 71 72 73 72 73 72 72 72 73 73 72 73 73 72 72 73 72 72 72 73 74 74 74 73 74 73 74 75 75 76 76 77 76 76 76 76 75 75 75 75
27 26 27 27 27 27 27 27 29 27 27 29 27 25 29 24 30 26 22 25 29 32 33 38 38 36 41 44 48 52 54 56 57 56 57 58 60 60 60 61 61 61 62 62 62 63 64 65 65 66 67 67 67 68 70 71 71 71 72 72 72 72 72 72 72 72 72 72 72 73 73 73 72 73 73 71 73 73 74 74 73 74 75 74 75 76 75 75 76 76 76 74 75 75 75 75 75